RYR43F LROP-ESSA

Flight info

Callsign RYR43F
Flight time 2h 24m
Altitude 38000
Route BUKEL1K BUKEL DCT EDETA DCT REBLA DCT KENIN DCT KOTEK DCT OVBOR N133 POLON DCT PENOR DCT TESPO DCT ARMOD/N0454F390 Z228 NILUG NILUG2P
Aircraft B738/M-SDE2E3FGHIRWXY/LB1

Departure

Time 2026-05-07 18:35
Airport Bucharest Henri Coandă International Airport (LROP)

Arrival

Time 2026-05-07 21:00
Airport Stockholm-Arlanda Airport (ESSA)
Time Latitude Longitude Altitude Speed Heading
2026-05-07 18:00 44.57006 26.07964 322 ft 0 kts 354°
2026-05-07 18:28 44.56998 26.07965 320 ft 2 kts 352°
2026-05-07 18:29 44.56981 26.07969 318 ft 2 kts 347°
2026-05-07 18:29 44.56965 26.07975 320 ft 2 kts 340°
2026-05-07 18:29 44.56950 26.07985 319 ft 2 kts 327°
2026-05-07 18:29 44.56938 26.07999 319 ft 2 kts 305°
2026-05-07 18:30 44.56931 26.08021 322 ft 2 kts 279°
2026-05-07 18:30 44.56930 26.08039 322 ft 1 kts 267°
2026-05-07 18:30 44.56930 26.08042 322 ft 0 kts 266°
2026-05-07 18:31 44.56929 26.08033 322 ft 5 kts 264°
2026-05-07 18:31 44.56916 26.07982 321 ft 6 kts 221°
2026-05-07 18:32 44.56874 26.07981 322 ft 8 kts 173°
2026-05-07 18:32 44.56784 26.07989 322 ft 16 kts 196°
2026-05-07 18:32 44.56730 26.07863 321 ft 16 kts 256°
2026-05-07 18:32 44.56705 26.07744 322 ft 0 kts 250°
2026-05-07 18:33 44.56703 26.07735 320 ft 6 kts 250°
2026-05-07 18:33 44.56624 26.07667 322 ft 20 kts 181°
2026-05-07 18:33 44.56493 26.07693 322 ft 15 kts 149°
2026-05-07 18:34 44.56474 26.07797 322 ft 0 kts 84°
2026-05-07 18:34 44.56481 26.07880 322 ft 37 kts 83°
2026-05-07 18:34 44.56540 26.08613 322 ft 113 kts 83°
2026-05-07 18:35 44.56663 26.10039 323 ft 180 kts 82°
2026-05-07 18:35 44.56857 26.11899 819 ft 203 kts 81°
2026-05-07 18:35 44.57088 26.13981 1394 ft 226 kts 83°
2026-05-07 18:35 44.57277 26.16159 2283 ft 223 kts 87°
2026-05-07 18:36 44.57375 26.18305 3306 ft 219 kts 88°
2026-05-07 18:36 44.57480 26.20529 3766 ft 243 kts 87°
2026-05-07 18:36 44.57626 26.23031 4191 ft 266 kts 85°
2026-05-07 18:36 44.57811 26.25700 4723 ft 289 kts 83°
2026-05-07 18:37 44.58558 26.28477 4965 ft 325 kts 53°
2026-05-07 18:37 44.60348 26.30625 5263 ft 354 kts 24°
2026-05-07 18:37 44.62744 26.31477 6116 ft 361 kts
2026-05-07 18:37 44.65229 26.31069 7111 ft 361 kts 340°
2026-05-07 18:38 44.67463 26.29486 8080 ft 361 kts 322°
2026-05-07 18:38 44.69373 26.27175 9009 ft 365 kts 313°
2026-05-07 18:38 44.71133 26.24628 9880 ft 370 kts 311°
2026-05-07 18:38 44.72907 26.21953 10654 ft 376 kts 311°
2026-05-07 18:39 44.74719 26.19244 11345 ft 385 kts 311°
2026-05-07 18:39 44.76609 26.16478 11858 ft 397 kts 312°
2026-05-07 18:39 44.78561 26.13681 12544 ft 403 kts 313°
2026-05-07 18:39 44.80550 26.10871 13263 ft 408 kts 314°
2026-05-07 18:40 44.82575 26.08033 13925 ft 413 kts 314°
2026-05-07 18:40 44.84622 26.05172 14539 ft 417 kts 314°
2026-05-07 18:40 44.86689 26.02286 15208 ft 418 kts 314°
2026-05-07 18:40 44.88761 25.99390 15835 ft 421 kts 314°
2026-05-07 18:41 44.90845 25.96473 16424 ft 424 kts 314°
2026-05-07 18:41 44.92943 25.93532 17002 ft 427 kts 314°
2026-05-07 18:41 44.95060 25.90560 17555 ft 430 kts 314°
2026-05-07 18:41 44.97191 25.87564 18097 ft 433 kts 314°
2026-05-07 18:42 44.99333 25.84550 18585 ft 435 kts 314°
2026-05-07 18:42 45.01488 25.81514 19033 ft 438 kts 314°
2026-05-07 18:42 45.03648 25.78469 19458 ft 441 kts 314°
2026-05-07 18:42 45.05829 25.75390 19858 ft 443 kts 314°
2026-05-07 18:43 45.08029 25.72312 20272 ft 446 kts 316°
2026-05-07 18:43 45.10383 25.69425 20663 ft 450 kts 319°
2026-05-07 18:43 45.12832 25.66643 21031 ft 453 kts 320°
2026-05-07 18:43 45.15288 25.63924 21408 ft 455 kts 321°
2026-05-07 18:44 45.17793 25.61156 21763 ft 458 kts 320°
2026-05-07 18:44 45.20306 25.58357 22104 ft 460 kts 320°
2026-05-07 18:44 45.22821 25.55527 22428 ft 463 kts 320°
2026-05-07 18:44 45.25346 25.52666 22750 ft 465 kts 320°
2026-05-07 18:45 45.27871 25.49787 23066 ft 467 kts 320°
2026-05-07 18:45 45.30413 25.46881 23342 ft 469 kts 320°
2026-05-07 18:45 45.32961 25.43961 23616 ft 472 kts 320°
2026-05-07 18:45 45.35516 25.41030 23872 ft 473 kts 319°
2026-05-07 18:46 45.38085 25.38081 24138 ft 474 kts 319°
2026-05-07 18:46 45.40654 25.35129 24394 ft 476 kts 319°
2026-05-07 18:46 45.43229 25.32168 24645 ft 477 kts 319°
2026-05-07 18:46 45.44943 25.30195 24794 ft 478 kts 319°
2026-05-07 18:47 45.48378 25.26236 25064 ft 480 kts 319°
2026-05-07 18:47 45.50974 25.23239 25266 ft 481 kts 319°
2026-05-07 18:47 45.53585 25.20221 25479 ft 483 kts 319°
2026-05-07 18:47 45.56192 25.17203 25693 ft 483 kts 319°
2026-05-07 18:48 45.57953 25.15161 25814 ft 484 kts 319°
2026-05-07 18:48 45.60573 25.12122 25983 ft 485 kts 319°
2026-05-07 18:48 45.63170 25.09107 26136 ft 487 kts 319°
2026-05-07 18:48 45.65800 25.06050 26332 ft 486 kts 319°
2026-05-07 18:49 45.68423 25.02998 26568 ft 485 kts 319°
2026-05-07 18:49 45.71041 24.99946 26804 ft 484 kts 318°
2026-05-07 18:49 45.73643 24.96911 27010 ft 483 kts 318°
2026-05-07 18:49 45.76247 24.93868 27203 ft 483 kts 318°
2026-05-07 18:50 45.78852 24.90822 27409 ft 482 kts 318°
2026-05-07 18:50 45.81444 24.87789 27605 ft 481 kts 318°
2026-05-07 18:50 45.84039 24.84752 27804 ft 481 kts 318°
2026-05-07 18:50 45.86597 24.81752 27983 ft 481 kts 318°
2026-05-07 18:51 45.89190 24.78708 28172 ft 481 kts 317°
2026-05-07 18:51 45.91777 24.75667 28369 ft 480 kts 317°
2026-05-07 18:51 45.94361 24.72625 28563 ft 480 kts 317°
2026-05-07 18:51 45.96938 24.69587 28754 ft 479 kts 317°
2026-05-07 18:52 45.99515 24.66547 28940 ft 479 kts 317°
2026-05-07 18:52 46.02092 24.63501 29120 ft 479 kts 317°
2026-05-07 18:52 46.04664 24.60458 29285 ft 479 kts 317°
2026-05-07 18:52 46.07237 24.57409 29462 ft 478 kts 317°
2026-05-07 18:53 46.09805 24.54364 29641 ft 478 kts 317°
2026-05-07 18:53 46.12377 24.51308 29822 ft 478 kts 317°
2026-05-07 18:53 46.14939 24.48262 30019 ft 477 kts 317°
2026-05-07 18:53 46.17502 24.45210 30185 ft 476 kts 317°
2026-05-07 18:54 46.20054 24.42168 30355 ft 475 kts 317°
2026-05-07 18:54 46.22571 24.39165 30532 ft 474 kts 317°
2026-05-07 18:54 46.25118 24.36121 30689 ft 474 kts 316°
2026-05-07 18:54 46.27655 24.33085 30860 ft 473 kts 316°
2026-05-07 18:55 46.30189 24.30049 31016 ft 472 kts 316°
2026-05-07 18:55 46.32714 24.27021 31167 ft 472 kts 316°
2026-05-07 18:55 46.35248 24.23977 31298 ft 472 kts 316°
2026-05-07 18:55 46.37772 24.20942 31448 ft 471 kts 316°
2026-05-07 18:56 46.40293 24.17907 31588 ft 471 kts 316°
2026-05-07 18:56 46.42811 24.14871 31727 ft 471 kts 316°
2026-05-07 18:56 46.45328 24.11833 31862 ft 470 kts 316°
2026-05-07 18:56 46.47839 24.08798 31988 ft 470 kts 316°
2026-05-07 18:57 46.50350 24.05760 32121 ft 470 kts 316°
2026-05-07 18:57 46.52829 24.02757 32253 ft 469 kts 316°
2026-05-07 18:57 46.55332 23.99721 32380 ft 469 kts 316°
2026-05-07 18:57 46.57840 23.96675 32510 ft 469 kts 316°
2026-05-07 18:58 46.60339 23.93636 32638 ft 469 kts 316°
2026-05-07 18:58 46.62841 23.90589 32773 ft 468 kts 315°
2026-05-07 18:58 46.65337 23.87545 32891 ft 468 kts 315°
2026-05-07 18:58 46.67836 23.84495 33006 ft 468 kts 315°
2026-05-07 18:59 46.70331 23.81445 33122 ft 468 kts 315°
2026-05-07 18:59 46.72823 23.78397 33242 ft 467 kts 315°
2026-05-07 18:59 46.75310 23.75350 33343 ft 467 kts 315°
2026-05-07 18:59 46.77838 23.72360 33445 ft 469 kts 317°
2026-05-07 19:00 46.80402 23.69503 33550 ft 469 kts 318°
2026-05-07 19:00 46.83025 23.66662 33672 ft 469 kts 319°
2026-05-07 19:00 46.85661 23.63830 33779 ft 469 kts 319°
2026-05-07 19:01 46.90912 23.58152 33937 ft 469 kts 318°
2026-05-07 19:01 46.93531 23.55294 34060 ft 468 kts 318°
2026-05-07 19:01 46.96119 23.52457 34343 ft 463 kts 318°
2026-05-07 19:01 46.98691 23.49627 34595 ft 460 kts 318°
2026-05-07 19:02 47.01238 23.46819 34852 ft 456 kts 318°
2026-05-07 19:02 47.03728 23.44067 35113 ft 452 kts 318°
2026-05-07 19:02 47.06235 23.41291 35375 ft 449 kts 318°
2026-05-07 19:02 47.08722 23.38535 35646 ft 444 kts 318°
2026-05-07 19:03 47.11177 23.35813 35918 ft 440 kts 318°
2026-05-07 19:03 47.13610 23.33111 36200 ft 436 kts 318°
2026-05-07 19:03 47.16024 23.30427 36476 ft 432 kts 318°
2026-05-07 19:03 47.18406 23.27777 36748 ft 428 kts 318°
2026-05-07 19:04 47.20737 23.25180 37030 ft 423 kts 318°
2026-05-07 19:04 47.23073 23.22574 37315 ft 418 kts 318°
2026-05-07 19:04 47.25374 23.20005 37605 ft 413 kts 318°
2026-05-07 19:04 47.27649 23.17463 37894 ft 408 kts 318°
2026-05-07 19:05 47.29899 23.14945 38038 ft 406 kts 318°
2026-05-07 19:05 47.34415 23.09874 38031 ft 409 kts 318°
2026-05-07 19:06 47.38961 23.04761 38042 ft 412 kts 318°
2026-05-07 19:06 47.45874 22.96968 38033 ft 421 kts 318°
2026-05-07 19:07 47.50563 22.91669 38036 ft 427 kts 318°
2026-05-07 19:07 47.55315 22.86287 38035 ft 433 kts 318°
2026-05-07 19:08 47.60096 22.80860 38036 ft 439 kts 318°
2026-05-07 19:08 47.64964 22.75323 38030 ft 442 kts 318°
2026-05-07 19:09 47.69857 22.69743 38050 ft 446 kts 318°
2026-05-07 19:09 47.74796 22.64096 38047 ft 449 kts 318°
2026-05-07 19:10 47.79758 22.58409 38041 ft 452 kts 317°
2026-05-07 19:10 47.84758 22.52663 38028 ft 455 kts 317°
2026-05-07 19:11 47.89779 22.46880 38019 ft 457 kts 317°
2026-05-07 19:11 47.94823 22.41055 38011 ft 459 kts 317°
2026-05-07 19:12 47.99881 22.35200 38008 ft 461 kts 317°
2026-05-07 19:12 48.04959 22.29306 38003 ft 462 kts 317°
2026-05-07 19:13 48.09991 22.23450 37999 ft 461 kts 317°
2026-05-07 19:13 48.15055 22.17542 37997 ft 461 kts 317°
2026-05-07 19:14 48.20107 22.11631 38003 ft 462 kts 317°
2026-05-07 19:14 48.25179 22.05682 37997 ft 463 kts 317°
2026-05-07 19:15 48.30258 21.99709 37997 ft 464 kts 317°
2026-05-07 19:15 48.35364 21.93733 37989 ft 466 kts 320°
2026-05-07 19:16 48.41091 21.89033 38004 ft 471 kts 331°
2026-05-07 19:16 48.47037 21.84991 37992 ft 471 kts 331°
2026-05-07 19:17 48.53013 21.80916 37985 ft 471 kts 331°
2026-05-07 19:17 48.58974 21.76768 37988 ft 472 kts 330°
2026-05-07 19:18 48.64948 21.72561 37994 ft 474 kts 330°
2026-05-07 19:18 48.70929 21.68331 37992 ft 475 kts 330°
2026-05-07 19:19 48.76929 21.64080 37986 ft 476 kts 330°
2026-05-07 19:19 48.82898 21.59841 37989 ft 476 kts 330°
2026-05-07 19:20 48.88907 21.55565 37982 ft 477 kts 330°
2026-05-07 19:20 48.94930 21.51265 37966 ft 477 kts 330°
2026-05-07 19:21 49.00935 21.46968 37986 ft 477 kts 330°
2026-05-07 19:21 49.06947 21.42654 37982 ft 478 kts 330°
2026-05-07 19:22 49.13120 21.38803 37970 ft 481 kts 336°
2026-05-07 19:22 49.19439 21.35407 37981 ft 481 kts 336°
2026-05-07 19:23 49.25764 21.32008 37978 ft 482 kts 336°
2026-05-07 19:23 49.32047 21.28542 37973 ft 482 kts 336°
2026-05-07 19:24 49.38360 21.25005 37967 ft 483 kts 335°
2026-05-07 19:24 49.44663 21.21453 37980 ft 483 kts 335°
2026-05-07 19:25 49.50985 21.17883 37991 ft 483 kts 335°
2026-05-07 19:25 49.57318 21.14299 37973 ft 485 kts 335°
2026-05-07 19:26 49.63638 21.10716 37967 ft 484 kts 335°
2026-05-07 19:26 49.69908 21.07151 37981 ft 482 kts 335°
2026-05-07 19:27 49.76205 21.03560 37973 ft 482 kts 335°
2026-05-07 19:27 49.82505 20.99956 37964 ft 482 kts 335°
2026-05-07 19:28 49.88798 20.96347 37979 ft 482 kts 335°
2026-05-07 19:28 49.95090 20.92728 37965 ft 483 kts 335°
2026-05-07 19:29 50.01387 20.89096 37964 ft 483 kts 335°
2026-05-07 19:29 50.07693 20.85449 37967 ft 483 kts 335°
2026-05-07 19:30 50.14007 20.81787 37965 ft 484 kts 335°
2026-05-07 19:30 50.20313 20.78119 37967 ft 485 kts 335°
2026-05-07 19:31 50.26647 20.74425 37971 ft 486 kts 335°
2026-05-07 19:31 50.32995 20.70712 37970 ft 487 kts 335°
2026-05-07 19:32 50.39315 20.67005 37968 ft 488 kts 335°
2026-05-07 19:32 50.45685 20.63258 37970 ft 489 kts 335°
2026-05-07 19:33 50.52058 20.59498 37966 ft 489 kts 335°
2026-05-07 19:33 50.58437 20.55724 37969 ft 489 kts 335°
2026-05-07 19:34 50.64815 20.51940 37973 ft 489 kts 335°
2026-05-07 19:34 50.70109 20.48790 37974 ft 489 kts 335°
2026-05-07 19:35 50.76484 20.44987 37973 ft 489 kts 335°
2026-05-07 19:35 50.83884 20.40559 37974 ft 488 kts 335°
2026-05-07 19:36 50.89214 20.37361 37977 ft 488 kts 335°
2026-05-07 19:36 50.95511 20.33571 37979 ft 487 kts 335°
2026-05-07 19:37 51.01878 20.29728 37978 ft 486 kts 335°
2026-05-07 19:37 51.08161 20.25925 37983 ft 485 kts 335°
2026-05-07 19:38 51.14458 20.22102 37986 ft 484 kts 335°
2026-05-07 19:38 51.20755 20.18268 37988 ft 483 kts 335°
2026-05-07 19:39 51.27031 20.14436 37990 ft 483 kts 334°
2026-05-07 19:39 51.33291 20.10602 37995 ft 482 kts 334°
2026-05-07 19:40 51.39556 20.06753 37995 ft 481 kts 334°
2026-05-07 19:40 51.45793 20.02911 38002 ft 480 kts 335°
2026-05-07 19:41 51.52032 19.99056 37998 ft 480 kts 334°
2026-05-07 19:41 51.58269 19.95190 38012 ft 480 kts 335°
2026-05-07 19:42 51.64470 19.91335 38012 ft 481 kts 335°
2026-05-07 19:42 51.70723 19.87438 38013 ft 482 kts 335°
2026-05-07 19:43 51.76978 19.83527 38018 ft 481 kts 335°
2026-05-07 19:43 51.83225 19.79610 38018 ft 481 kts 335°
2026-05-07 19:44 51.89460 19.75689 38015 ft 481 kts 335°
2026-05-07 19:44 51.95703 19.71750 38023 ft 482 kts 335°
2026-05-07 19:45 52.01961 19.67790 38027 ft 484 kts 335°
2026-05-07 19:45 52.08249 19.63799 38028 ft 485 kts 335°
2026-05-07 19:46 52.14505 19.59817 38031 ft 485 kts 335°
2026-05-07 19:46 52.20786 19.55808 38039 ft 483 kts 335°
2026-05-07 19:47 52.27041 19.51803 38024 ft 482 kts 335°
2026-05-07 19:47 52.33292 19.47787 38032 ft 484 kts 335°
2026-05-07 19:48 52.39560 19.43747 38035 ft 484 kts 335°
2026-05-07 19:48 52.45828 19.39696 38035 ft 484 kts 335°
2026-05-07 19:49 52.52095 19.35634 38043 ft 483 kts 335°
2026-05-07 19:49 52.58316 19.31589 38044 ft 483 kts 335°
2026-05-07 19:50 52.64559 19.27516 38044 ft 483 kts 335°
2026-05-07 19:50 52.70806 19.23428 38053 ft 483 kts 335°
2026-05-07 19:51 52.77052 19.19329 38050 ft 483 kts 335°
2026-05-07 19:51 52.83300 19.15215 38052 ft 483 kts 335°
2026-05-07 19:52 52.89541 19.11094 38053 ft 483 kts 335°
2026-05-07 19:52 52.95783 19.06959 38062 ft 482 kts 335°
2026-05-07 19:53 53.01985 19.02837 38061 ft 482 kts 335°
2026-05-07 19:53 53.08215 18.98684 38065 ft 482 kts 335°
2026-05-07 19:54 53.14442 18.94521 38074 ft 482 kts 335°
2026-05-07 19:54 53.20680 18.90336 38075 ft 482 kts 335°
2026-05-07 19:55 53.26911 18.86143 38077 ft 482 kts 335°
2026-05-07 19:55 53.33107 18.81960 38088 ft 484 kts 335°
2026-05-07 19:56 53.39356 18.77728 38082 ft 485 kts 335°
2026-05-07 19:56 53.45623 18.73471 38093 ft 485 kts 335°
2026-05-07 19:57 53.51874 18.69211 38086 ft 485 kts 335°
2026-05-07 19:57 53.58138 18.64929 38085 ft 485 kts 335°
2026-05-07 19:58 53.64397 18.60637 38091 ft 485 kts 335°
2026-05-07 19:58 53.70649 18.56335 38089 ft 485 kts 335°
2026-05-07 19:59 53.76889 18.52028 38091 ft 484 kts 335°
2026-05-07 19:59 53.83070 18.47748 38099 ft 482 kts 335°
2026-05-07 20:00 53.89283 18.43431 38091 ft 482 kts 335°
2026-05-07 20:00 53.95494 18.39102 38099 ft 482 kts 335°
2026-05-07 20:01 54.01696 18.34766 38100 ft 482 kts 335°
2026-05-07 20:01 54.07895 18.30416 38106 ft 482 kts 335°
2026-05-07 20:02 54.14064 18.26074 38104 ft 482 kts 335°
2026-05-07 20:02 54.20288 18.21680 38107 ft 483 kts 335°
2026-05-07 20:03 54.26501 18.17279 38114 ft 482 kts 335°
2026-05-07 20:03 54.32709 18.12868 38109 ft 482 kts 335°
2026-05-07 20:04 54.38897 18.08456 38113 ft 482 kts 335°
2026-05-07 20:04 54.45050 18.04054 38115 ft 481 kts 335°
2026-05-07 20:05 54.51241 17.99611 38122 ft 481 kts 335°
2026-05-07 20:05 54.57410 17.95169 38126 ft 481 kts 335°
2026-05-07 20:06 54.63583 17.90709 38126 ft 481 kts 335°
2026-05-07 20:06 54.69752 17.86238 38132 ft 480 kts 335°
2026-05-07 20:07 54.75919 17.81753 38135 ft 480 kts 335°
2026-05-07 20:07 54.82077 17.77260 38130 ft 480 kts 335°
2026-05-07 20:08 54.88183 17.72790 38137 ft 479 kts 335°
2026-05-07 20:08 54.94324 17.68280 38131 ft 479 kts 335°
2026-05-07 20:09 55.00446 17.63768 38136 ft 478 kts 335°
2026-05-07 20:10 55.09649 17.56957 38146 ft 479 kts 335°
2026-05-07 20:10 55.15745 17.52427 38141 ft 479 kts 335°
2026-05-07 20:11 55.21880 17.47853 38143 ft 479 kts 334°
2026-05-07 20:11 55.28005 17.43271 38144 ft 478 kts 334°
2026-05-07 20:12 55.34087 17.38706 38142 ft 477 kts 334°
2026-05-07 20:12 55.40212 17.34093 38149 ft 476 kts 334°
2026-05-07 20:13 55.46298 17.29492 38154 ft 476 kts 334°
2026-05-07 20:13 55.52378 17.24882 38152 ft 476 kts 334°
2026-05-07 20:14 55.58458 17.20257 38156 ft 475 kts 334°
2026-05-07 20:14 55.64668 17.16822 38165 ft 478 kts 349°
2026-05-07 20:15 55.71339 17.16515 38179 ft 481 kts
2026-05-07 20:15 55.78022 17.17303 38164 ft 482 kts
2026-05-07 20:16 55.84719 17.18075 38160 ft 482 kts
2026-05-07 20:16 55.91416 17.18755 38164 ft 482 kts
2026-05-07 20:17 55.98101 17.19399 38161 ft 480 kts
2026-05-07 20:17 56.04769 17.20042 38162 ft 479 kts
2026-05-07 20:18 56.11390 17.20689 38162 ft 479 kts
2026-05-07 20:18 56.18041 17.21342 38167 ft 478 kts
2026-05-07 20:19 56.24681 17.21997 38168 ft 477 kts
2026-05-07 20:19 56.31320 17.22653 38166 ft 477 kts
2026-05-07 20:20 56.37953 17.23308 38173 ft 477 kts
2026-05-07 20:20 56.44578 17.23955 38177 ft 477 kts
2026-05-07 20:21 56.51177 17.24601 38173 ft 478 kts
2026-05-07 20:21 56.57829 17.25256 38171 ft 478 kts
2026-05-07 20:22 56.64485 17.25915 38180 ft 479 kts
2026-05-07 20:22 56.71133 17.26576 38175 ft 479 kts
2026-05-07 20:23 56.76672 17.27127 38175 ft 478 kts
2026-05-07 20:23 56.83328 17.27793 38177 ft 478 kts
2026-05-07 20:24 56.89981 17.28460 38171 ft 477 kts
2026-05-07 20:24 56.93264 17.28792 38023 ft 468 kts
2026-05-07 20:24 56.96492 17.29119 37607 ft 462 kts
2026-05-07 20:24 56.99656 17.29439 37091 ft 459 kts
2026-05-07 20:25 57.02831 17.29759 36601 ft 456 kts
2026-05-07 20:25 57.05983 17.30077 36134 ft 452 kts
2026-05-07 20:25 57.09128 17.30395 35542 ft 452 kts
2026-05-07 20:25 57.12260 17.30713 35030 ft 450 kts
2026-05-07 20:26 57.15382 17.31030 34497 ft 448 kts
2026-05-07 20:26 57.18489 17.31347 33971 ft 445 kts
2026-05-07 20:26 57.21565 17.31661 33479 ft 441 kts
2026-05-07 20:26 57.24620 17.31974 32882 ft 439 kts
2026-05-07 20:27 57.27696 17.32289 31929 ft 446 kts
2026-05-07 20:27 57.30807 17.32607 31099 ft 450 kts
2026-05-07 20:27 57.33964 17.32930 30155 ft 456 kts
2026-05-07 20:27 57.37134 17.33257 29199 ft 458 kts
2026-05-07 20:28 57.40283 17.33582 28208 ft 461 kts
2026-05-07 20:28 57.43507 17.33915 27180 ft 466 kts
2026-05-07 20:28 57.46747 17.34251 26258 ft 467 kts
2026-05-07 20:28 57.49992 17.34626 25383 ft 468 kts
2026-05-07 20:29 57.53219 17.35538 24690 ft 466 kts
2026-05-07 20:29 57.56392 17.36776 23794 ft 468 kts 10°
2026-05-07 20:29 57.59570 17.38111 22844 ft 467 kts 11°
2026-05-07 20:29 57.62722 17.39455 22143 ft 461 kts 11°
2026-05-07 20:30 57.65834 17.40767 21489 ft 455 kts 10°
2026-05-07 20:30 57.68907 17.42039 20807 ft 450 kts 10°
2026-05-07 20:30 57.71955 17.43281 20111 ft 446 kts
2026-05-07 20:30 57.74970 17.44496 19427 ft 442 kts
2026-05-07 20:31 57.77976 17.45701 18780 ft 438 kts
2026-05-07 20:31 57.80946 17.46891 18093 ft 434 kts
2026-05-07 20:31 57.83885 17.48070 17425 ft 430 kts
2026-05-07 20:31 57.86794 17.49239 16780 ft 425 kts 10°
2026-05-07 20:32 57.89642 17.50385 16137 ft 421 kts 10°
2026-05-07 20:32 57.92528 17.51550 15493 ft 417 kts 10°
2026-05-07 20:32 57.95316 17.52678 14896 ft 413 kts 10°
2026-05-07 20:32 57.98110 17.53809 14301 ft 409 kts 10°
2026-05-07 20:33 58.00881 17.54934 13678 ft 405 kts 10°
2026-05-07 20:33 58.03624 17.56048 13067 ft 401 kts 11°
2026-05-07 20:33 58.06334 17.57152 12491 ft 396 kts 11°
2026-05-07 20:33 58.09012 17.58244 11912 ft 391 kts 11°
2026-05-07 20:34 58.11663 17.59326 11345 ft 387 kts 11°
2026-05-07 20:34 58.14280 17.60397 10799 ft 383 kts 11°
2026-05-07 20:34 58.16874 17.61459 10381 ft 381 kts 11°
2026-05-07 20:34 58.19481 17.62528 10263 ft 382 kts 11°
2026-05-07 20:35 58.22033 17.63576 10197 ft 379 kts 11°
2026-05-07 20:35 58.24605 17.64634 10206 ft 378 kts 11°
2026-05-07 20:35 58.27184 17.65696 10198 ft 379 kts 11°
2026-05-07 20:35 58.29760 17.66759 10186 ft 379 kts 11°
2026-05-07 20:36 58.32337 17.67825 10189 ft 379 kts 11°
2026-05-07 20:36 58.34917 17.68892 10191 ft 379 kts 11°
2026-05-07 20:36 58.37498 17.69962 10187 ft 379 kts 11°
2026-05-07 20:36 58.40076 17.71033 10190 ft 379 kts 11°
2026-05-07 20:37 58.42651 17.72103 10185 ft 379 kts 11°
2026-05-07 20:37 58.45234 17.73179 10189 ft 379 kts 11°
2026-05-07 20:37 58.47804 17.74251 10190 ft 379 kts 11°
2026-05-07 20:37 58.50383 17.75328 10191 ft 379 kts 11°
2026-05-07 20:38 58.52958 17.76405 10191 ft 379 kts 11°
2026-05-07 20:38 58.55538 17.77486 10191 ft 379 kts 11°
2026-05-07 20:38 58.58121 17.78570 10190 ft 379 kts 11°
2026-05-07 20:38 58.60662 17.79638 10190 ft 378 kts 11°
2026-05-07 20:39 58.63238 17.80722 10191 ft 379 kts 11°
2026-05-07 20:39 58.65813 17.81808 10187 ft 379 kts 11°
2026-05-07 20:39 58.68391 17.82896 10189 ft 379 kts 11°
2026-05-07 20:39 58.70963 17.83984 10190 ft 379 kts 11°
2026-05-07 20:40 58.73536 17.85073 10191 ft 379 kts 11°
2026-05-07 20:40 58.76107 17.86163 10191 ft 378 kts 11°
2026-05-07 20:40 58.78684 17.87258 10194 ft 378 kts 11°
2026-05-07 20:40 58.81251 17.88349 10191 ft 378 kts 11°
2026-05-07 20:41 58.83823 17.89470 10193 ft 378 kts 11°
2026-05-07 20:41 58.86385 17.90621 10193 ft 378 kts 11°
2026-05-07 20:41 58.88945 17.91786 10193 ft 378 kts 11°
2026-05-07 20:41 58.91506 17.92954 10189 ft 378 kts 11°
2026-05-07 20:42 58.94067 17.94122 10193 ft 378 kts 11°
2026-05-07 20:42 58.96630 17.95291 10187 ft 378 kts 11°
2026-05-07 20:42 58.99139 17.96434 10189 ft 378 kts 11°
2026-05-07 20:42 59.01665 17.97585 10200 ft 378 kts 11°
2026-05-07 20:43 59.04226 17.98754 10196 ft 378 kts 11°
2026-05-07 20:43 59.06785 17.99923 10194 ft 377 kts 11°
2026-05-07 20:43 59.09336 18.01090 10149 ft 372 kts 11°
2026-05-07 20:43 59.11842 18.02240 9663 ft 368 kts 11°
2026-05-07 20:44 59.14320 18.03377 8980 ft 367 kts 12°
2026-05-07 20:44 59.16806 18.04518 8302 ft 366 kts 12°
2026-05-07 20:44 59.19286 18.05658 7707 ft 364 kts 12°
2026-05-07 20:44 59.21737 18.06787 7337 ft 362 kts 12°
2026-05-07 20:45 59.24198 18.07923 7247 ft 362 kts 12°
2026-05-07 20:45 59.26649 18.09056 7213 ft 361 kts 12°
2026-05-07 20:45 59.29089 18.10186 7218 ft 361 kts 12°
2026-05-07 20:45 59.31503 18.11306 7212 ft 361 kts 12°
2026-05-07 20:46 59.33052 18.12024 7209 ft 361 kts 12°
2026-05-07 20:46 59.35387 18.13110 7201 ft 356 kts 12°
2026-05-07 20:46 59.37738 18.14205 7192 ft 338 kts 12°
2026-05-07 20:46 59.39967 18.15245 7192 ft 320 kts 12°
2026-05-07 20:47 59.42083 18.16234 7189 ft 305 kts 12°
2026-05-07 20:47 59.44126 18.17188 7144 ft 300 kts 12°
2026-05-07 20:47 59.46146 18.18131 6956 ft 295 kts 12°
2026-05-07 20:47 59.48123 18.19057 6789 ft 287 kts 12°
2026-05-07 20:48 59.50026 18.19950 6708 ft 276 kts 13°
2026-05-07 20:48 59.51869 18.20719 6606 ft 264 kts
2026-05-07 20:48 59.53648 18.21209 6505 ft 253 kts
2026-05-07 20:48 59.55368 18.21628 6443 ft 245 kts
2026-05-07 20:49 59.57027 18.22034 6340 ft 234 kts
2026-05-07 20:49 59.58606 18.22429 6244 ft 223 kts
2026-05-07 20:49 59.60107 18.22811 6144 ft 212 kts
2026-05-07 20:49 59.61550 18.23183 5936 ft 206 kts
2026-05-07 20:50 59.62946 18.23546 5778 ft 200 kts
2026-05-07 20:50 59.64323 18.23906 5585 ft 199 kts
2026-05-07 20:50 59.65673 18.24261 5374 ft 198 kts
2026-05-07 20:50 59.67027 18.24618 5139 ft 196 kts
2026-05-07 20:51 59.68383 18.24977 4816 ft 197 kts
2026-05-07 20:51 59.69745 18.25337 4496 ft 198 kts
2026-05-07 20:51 59.71116 18.25614 4167 ft 199 kts 359°
2026-05-07 20:51 59.72490 18.25387 4046 ft 199 kts 353°
2026-05-07 20:52 59.73981 18.25039 4035 ft 229 kts 353°
2026-05-07 20:52 59.75587 18.24674 3983 ft 232 kts 354°
2026-05-07 20:52 59.77190 18.24329 3971 ft 231 kts 354°
2026-05-07 20:52 59.78782 18.23998 3998 ft 228 kts 354°
2026-05-07 20:53 59.80353 18.23676 3995 ft 227 kts 354°
2026-05-07 20:53 59.81925 18.23356 4012 ft 227 kts 354°
2026-05-07 20:53 59.83473 18.22886 3991 ft 234 kts 339°
2026-05-07 20:53 59.84850 18.20813 4023 ft 267 kts 304°
2026-05-07 20:54 59.85706 18.17495 4013 ft 273 kts 292°
2026-05-07 20:54 59.86416 18.13962 4002 ft 273 kts 291°
2026-05-07 20:54 59.87071 18.10434 3977 ft 270 kts 283°
2026-05-07 20:54 59.87091 18.06867 3988 ft 249 kts 255°
2026-05-07 20:55 59.86435 18.03845 3968 ft 229 kts 236°
2026-05-07 20:55 59.85401 18.01559 3842 ft 216 kts 221°
2026-05-07 20:55 59.84275 17.99663 3626 ft 208 kts 214°
2026-05-07 20:55 59.82991 17.98591 3381 ft 195 kts 194°
2026-05-07 20:56 59.81718 17.97924 3112 ft 182 kts 193°
2026-05-07 20:56 59.80533 17.97418 2885 ft 167 kts 191°
2026-05-07 20:56 59.79451 17.97013 2701 ft 150 kts 190°
2026-05-07 20:56 59.78439 17.96647 2426 ft 150 kts 190°
2026-05-07 20:57 59.77421 17.96277 2312 ft 146 kts 190°
2026-05-07 20:57 59.76447 17.95923 2113 ft 143 kts 190°
2026-05-07 20:57 59.75471 17.95570 1917 ft 143 kts 190°
2026-05-07 20:57 59.74494 17.95215 1729 ft 142 kts 190°
2026-05-07 20:58 59.73524 17.94864 1527 ft 141 kts 190°
2026-05-07 20:58 59.72561 17.94515 1347 ft 140 kts 190°
2026-05-07 20:58 59.71598 17.94166 1174 ft 140 kts 191°
2026-05-07 20:58 59.70638 17.93833 1014 ft 141 kts 188°
2026-05-07 20:59 59.69665 17.93499 777 ft 142 kts 189°
2026-05-07 20:59 59.68701 17.93131 612 ft 140 kts 190°
2026-05-07 20:59 59.67732 17.92799 429 ft 147 kts 189°
2026-05-07 20:59 59.66746 17.92417 210 ft 140 kts 190°
2026-05-07 21:00 59.65845 17.92096 144 ft 121 kts 191°
2026-05-07 21:00 59.65316 17.91905 142 ft 43 kts 191°
2026-05-07 21:00 59.65087 17.91964 139 ft 27 kts 158°
2026-05-07 21:00 59.65072 17.91976 139 ft 0 kts 158°
2026-05-07 21:01 59.65071 17.91977 139 ft 0 kts 158°
2026-05-07 21:01 59.65068 17.91979 139 ft 1 kts 158°
2026-05-07 21:01 59.65067 17.91980 139 ft 0 kts 158°
2026-05-07 21:01 59.65029 17.92010 138 ft 0 kts 158°
2026-05-07 21:02 59.65026 17.92014 138 ft 0 kts 152°
2026-05-07 21:02 59.65007 17.92186 137 ft 2 kts 355°
2026-05-07 21:02 59.65169 17.92210 137 ft 29 kts
2026-05-07 21:02 59.65379 17.92347 137 ft 33 kts 13°
2026-05-07 21:03 59.65525 17.92603 137 ft 34 kts 69°
2026-05-07 21:03 59.65587 17.93071 137 ft 26 kts 74°
2026-05-07 21:03 59.65598 17.93243 137 ft 0 kts 102°
2026-05-07 21:04 59.65595 17.93249 137 ft 1 kts 126°
2026-05-07 21:04 59.65492 17.93340 137 ft 8 kts 174°
2026-05-07 21:04 59.65473 17.93344 137 ft 0 kts 174°
2026-05-07 21:04 59.65471 17.93344 137 ft 1 kts 172°
2026-05-07 21:05 59.65464 17.93344 137 ft 2 kts 182°
2026-05-07 21:05 59.65446 17.93356 137 ft 0 kts 122°
2026-05-07 21:05 59.65448 17.93361 137 ft 0 kts 83°
2026-05-07 21:05 59.65451 17.93398 137 ft 10 kts 78°
2026-05-07 21:06 59.65459 17.93466 137 ft 0 kts 77°
2026-05-07 21:06 59.65459 17.93468 137 ft 1 kts 75°
2026-05-07 21:06 59.65460 17.93473 137 ft 0 kts 75°
2026-05-07 21:06 59.65461 17.93479 137 ft 1 kts 75°
2026-05-07 21:07 59.65461 17.93484 137 ft 0 kts 75°
2026-05-07 21:07 59.65462 17.93489 137 ft 0 kts 75°
2026-05-07 21:07 59.65462 17.93490 137 ft 0 kts 75°